Regional Weather Roundup
Issued by NWS

Home | Current Version | Previous Version | Graphics & Text | Print | Product List | Glossary Off
Versions: 1 2 3 4 5 6 7 8 9 10 11 12 13 14 15 16 17 18 19 20 21 22 23 24 25 26 27 28 29 30 31 32 33 34 35 36 37 38 39 40 41 42 43 44 45 46 47 48 49 50

096
ASUS43 KLSX 230607
RWRMO

WEATHER SUMMARY FOR MISSOURI
NATIONAL WEATHER SERVICE SPRINGFIELD MO
1200 AM CST MON JAN 23 2017

NOTE: "FAIR" INDICATES FEW OR NO CLOUDS BELOW 12,000 FEET WITH NO
       SIGNIFICANT WEATHER AND/OR OBSTRUCTIONS TO VISIBILITY.
       CURRENT SKY AND/OR WEATHER CONDITIONS ARE NOT AVAILABLE FOR
       CHILLICOTHE AND FARMINGTON.

MOZ001>031-035>038-043-044-053-054-230700-
...NORTHERN AND WESTERN MISSOURI...

CITY           SKY/WX    TMP DP  RH WIND       PRES   REMARKS
KANSAS CTY INT CLEAR     32  29  88 NW6       29.89S WCI  26
6HR MIN TEMP:  32; 6HR MAX TEMP:  38;

KANSAS C DTWN  CLOUDY    38  34  85 NW5       29.91R
6HR MIN TEMP:  38; 6HR MAX TEMP:  40;

LEE`S SUMMIT   CLOUDY    38  35  89 NW7       29.90R
6HR MIN TEMP:  38; 6HR MAX TEMP:  39;

ST JOSEPH      CLEAR     30  30 100 NW3       29.90S
6HR MIN TEMP:  29; 6HR MAX TEMP:  38;

CHILLICOTHE      N/A     39  35  86 NW6       29.89R
6HR MIN TEMP:  39; 6HR MAX TEMP:  40;

KIRKSVILLE     CLOUDY    38  36  92 NW8       29.84R
6HR MIN TEMP:  38; 6HR MAX TEMP:  39;


$$
MOZ066>068-077>081-088>096-101>105-230700-
...SOUTHWEST MISSOURI...

CITY           SKY/WX    TMP DP  RH WIND       PRES   REMARKS
SPRINGFIELD    CLOUDY    37  35  92 NW12      29.84S WCI  29
6HR MIN TEMP:  36; 6HR MAX TEMP:  43; 6HR PCP:  0.04;

JOPLIN         CLOUDY    38  35  89 N9        29.91R
6HR MIN TEMP:  35; 6HR MAX TEMP:  41;

BRANSON        CLOUDY    36  36 100 NW12      29.84R FOG     WCI  27

$$
MOZ032>034-039>042-045>050-055>058-069>072-230700-
...CENTRAL MISSOURI...

CITY           SKY/WX    TMP DP  RH WIND       PRES   REMARKS
COLUMBIA       CLOUDY    40  36  86 NW12      29.81S
6HR MIN TEMP:  39; 6HR MAX TEMP:  41; 6HR PCP: TRACE;

JEFFERSON CITY CLOUDY    41  35  79 NW6       29.83S
6HR MIN TEMP:  40; 6HR MAX TEMP:  42; 6HR PCP: TRACE;

ROLLA          CLOUDY    38  35  89 N14       29.78S WCI  30
6HR MIN TEMP:  38; 6HR MAX TEMP:  43; 6HR PCP: TRACE;

SEDALIA        CLOUDY    40  37  89 NW13      29.87R
6HR MIN TEMP:  38; 6HR MAX TEMP:  40;

WHITEMAN AFB   CLOUDY    38  38 100 NW10      29.86S
WARRENSBURG    CLOUDY    37  34  87 NW10      29.89R
OSAGE BEACH    CLOUDY    39  37  92 VRB6      29.84R

$$
MOZ051-052-059>065-230700-
...EAST CENTRAL MISSOURI...

CITY           SKY/WX    TMP DP  RH WIND       PRES   REMARKS
ST LOUIS INTL  CLOUDY    40  35  83 NW15      29.74R
6HR MIN TEMP:  40; 6HR MAX TEMP:  48;

SPIRIT OF STL  CLOUDY    40  35  83 NW12      29.76S
6HR MIN TEMP:  40; 6HR MAX TEMP:  48;

ST CHARLES     CLOUDY    39  36  89 NW15      29.74S
6HR MIN TEMP:  39; 6HR MAX TEMP:  47;


$$
MOZ072>076-082>087-097>100-106>115-230700-
...SOUTH CENTRAL AND SOUTHEAST MISSOURI...

CITY           SKY/WX    TMP DP  RH WIND       PRES   REMARKS
CAPE GIRARDEAU CLEAR     45  37  73 N23G31    29.60R
6HR MIN TEMP:  45; 6HR MAX TEMP:  53;

FARMINGTON     CLOUDY    41  36  82 NW17G23   29.71R
6HR MIN TEMP:  41; 6HR MAX TEMP:  51; 6HR PCP: TRACE;

POPLAR BLUFF   MOCLDY    47  39  74 N18G30    29.62R
6HR MIN TEMP:  48; 6HR MAX TEMP:  58; 6HR PCP: TRACE;

WEST PLAINS    CLOUDY    40  36  86 NW16G22   29.75R
6HR MIN TEMP:  39; 6HR MAX TEMP:  46;


$$



USA.gov is the U.S. government's official web portal to all federal, state and local government web resources and services.